Location: Lane
(33.5226°N, 79.8788°W)
Time: 09:17:11
(UTC+00:00)

Altair - Pass Details

Date: 04 October 2022
Orbit: 1501 x 1682 km, 47.2° (Epoch: 30 November)

Event Time Altitude Azimuth Distance (km) Brightness Sun altitude
Rises 12:03:54 0° 278° (W) 4,803 9.4 9.0°
Reaches altitude 10° 12:07:20 10° 287° (WNW) 3,844 9.0 9.7°
Maximum altitude 12:16:20 38° 352° (N) 2,346 8.5 11.6°
Drops below altitude 10° 12:25:35 10° 58° (ENE) 3,940 10.4 13.4°
Sets 12:29:09 0° 67° (ENE) 4,935 11.0 14.1°
